Location: Hagen
(51.3456°N, 7.4557°E)
Time: 02:08:26
(UTC+02:00)

Envisat - Visible Passes

Search period start: 23 July 2018 00:00
Search period end: 02 August 2018 00:00
Orbit: 764 x 766 km, 98.2° (Epoch: 22 July)

Date Brightness Start Highest point End Pass type
(mag) Time Alt. Az. Time Alt. Az. Time Alt. Az.
25 Jul 6.2 22:29:20 10° W 22:29:56 10° W 22:30:33 10° WNW visible
28 Jul 5.8 22:16:20 10° WSW 22:18:35 13° W 22:20:52 10° WNW visible
31 Jul 5.7 22:04:12 10° SW 22:07:15 16° W 22:10:20 10° NW visible
